Miscellaneous Local Product
Issued by NWS Hastings, NE

Home | Current Version | Previous Version | Graphics & Text | Print | Product List | Glossary On
Versions: 1 2 3 4 5 6 7 8 9 10 11 12 13 14 15 16 17 18 19 20 21 22 23 24 25 26 27 28 29 30 31 32 33 34 35 36 37 38 39 40 41 42 43 44 45 46 47 48 49 50
000
AXUS43 KGID 291602
MISGRI

GID CWA HOURLY WEATHER ROUNDUP
NATIONAL WEATHER SERVICE HASTINGS NE
1100 AM CDT MON AUG 29 2016

NOTE: "FAIR" INDICATES FEW OR NO CLOUDS BELOW 12,000 FEET WITH NO
SIGNIFICANT WEATHER AND/OR OBSTRUCTIONS TO VISIBILITY.

...SOUTH CENTRAL NEBRASKA...

CITY           SKY/WX    TMP DP  RH WIND       PRES   REMARKS
GRAND ISLAND   CLOUDY    73  66  78 SE6       30.22R
HASTINGS       CLOUDY    74  65  73 SE5       30.23R
KEARNEY        CLOUDY    77  64  65 SE9       30.20S
ORD            CLOUDY    73  63  70 SE7       30.20R
YORK           CLOUDY    77  70  78 S7        30.21R
AURORA         CLOUDY    75  70  83 SE6       30.21R
LEXINGTON      CLOUDY    74  65  72 S14       30.21S
HOLDREGE       CLOUDY    73  63  72 S7        30.22R
HEBRON         MOSUNNY   77  72  84 E3        30.20R

...NEBRASKA PANHANDLE...

CITY           SKY/WX    TMP DP  RH WIND       PRES   REMARKS
CHADRON        SUNNY     73  51  46 NE8       30.25R
ALLIANCE       SUNNY     74  57  55 SE8       30.25R
SCOTTSBLUFF    SUNNY     74  54  49 NW7       30.24R
SIDNEY         SUNNY     76  54  46 E6        30.28R

...WESTERN AND NORTH CENTRAL NEBRASKA...

CITY           SKY/WX    TMP DP  RH WIND       PRES   REMARKS
VALENTINE      SUNNY     81  62  52 SW8       30.18R
AINSWORTH      SUNNY     79  66  64 SW8       30.19R
ONEILL         PTSUNNY   78  64  62 SW7       30.20R
BROKEN BOW     CLOUDY    71  64  78 S7        30.22R
IMPERIAL       CLOUDY    69  64  84 SW8       30.22F
NORTH PLATTE   CLOUDY    69  62  78 CALM      30.22R
MCCOOK         CLOUDY    72  66  81 S7        30.21R

...EASTERN NEBRASKA...

CITY           SKY/WX    TMP DP  RH WIND       PRES   REMARKS
NORFOLK        CLOUDY    74  66  76 CALM      30.21R
SO SIOUX CITY  MOSUNNY   75  68  78 S7        30.21R
TEKAMAH        CLOUDY    76  70  82 S6        30.20R
COLUMBUS       MOSUNNY   75  63  64 SE5       30.21R
ALBION         PTSUNNY   73  64  73 SE5       30.21R
OMAHA EPPLEY   PTSUNNY   78  69  73 S5        30.20R
OFFUTT AFB     CLOUDY    77  71  82 SE5       30.19R
MILLARD        CLOUDY    78  70  76 SE5       30.20R
LINCOLN        CLOUDY    81  71  71 S7        30.21R
NEBRASKA CITY  MOSUNNY   76  74  95 SE3       30.21R
BEATRICE       CLOUDY    79  72  79 SE5       30.20S
FALLS CITY     MOSUNNY   81  74  79 CALM      30.20R

...NORTHERN KANSAS...

CITY           SKY/WX    TMP DP  RH WIND       PRES   REMARKS
GOODLAND       CLOUDY    67  61  81 S12       30.26S
HILL CITY      LGT RAIN  69  68  96 SW6       30.24R FOG
NORTON         DRIZZLE   73  64  73 S9        30.21
SMITH CENTER   SUNNY     75  64  69 CALM      30.22R
BELOIT         SUNNY     77  66  69 E3        30.18S
HAYS           CLOUDY    73  63  68 CALM      30.22R
RUSSELL        CLOUDY    76  66  71 CALM      30.20R
CONCORDIA      MOSUNNY   80  71  74 E6        30.20R
SALINA         SUNNY     83  72  69 N6        30.19R
TOPEKA         PTSUNNY   84  70  62 SW6       30.19R



USA.gov is the U.S. government's official web portal to all federal, state and local government web resources and services.